When you browse on this site, cookies collect data to enhance your experience and personalize the content and advertising you see.
Visit our Privacy Policy to learn more. By continuing to use the site, you agree to this use of cookies and data.
  • In Hungary
  • List of Countries
  • For 7 days
  • Water Temperature
  • Satellite Maps
  • Weather Map
  • News
  • Weather Widgets
  • user-avatar
    Login

    Hourly Weather Augusta

    Today, 14 December, Friday

    Time Temperature Precipitation Wind Pressure Humidity
    00:00 +13°C° 0 mm 4 mps 758 mmHg 87%
    01:00 +13°C° 0 mm 4 mps 758 mmHg 88%
    02:00 +12°C° 0 mm 4 mps 758 mmHg 87%
    03:00 +12°C° 0 mm 4 mps 757 mmHg 86%
    04:00 +12°C° 0 mm 4 mps 757 mmHg 85%
    05:00 +12°C° 0 mm 4 mps 757 mmHg 85%
    06:00 +12°C° 0 mm 4 mps 757 mmHg 85%
    07:00 +12°C° 0 mm 4 mps 756 mmHg 85%
    08:00 +14°C° 0 mm 4 mps 756 mmHg 78%
    09:00 +15°C° 0 mm 5 mps 756 mmHg 71%
    10:00 +17°C° 0 mm 5 mps 756 mmHg 65%
    11:00 +17°C° 0 mm 5 mps 756 mmHg 61%
    12:00 +19°C° 0 mm 5 mps 756 mmHg 57%
    13:00 +20°C° 0 mm 5 mps 755 mmHg 53%
    14:00 +19°C° 0 mm 4 mps 755 mmHg 57%
    15:00 +18°C° 0 mm 4 mps 755 mmHg 62%
    16:00 +18°C° 0 mm 3 mps 755 mmHg 66%
    17:00 +17°C° 0 mm 3 mps 755 mmHg 69%
    18:00 +16°C° 0 mm 3 mps 755 mmHg 72%
    19:00 +16°C° 0 mm 3 mps 755 mmHg 75%
    20:00 +14°C° 0.2 mm 3 mps 755 mmHg 76%
    21:00 +14°C° 0.2 mm 3 mps 755 mmHg 77%
    22:00 +14°C° 0.2 mm 3 mps 755 mmHg 78%
    23:00 +13°C° 0.3 mm 3 mps 755 mmHg 80%

    Tomorrow, 15 December, Saturday

    Time Temperature Precipitation Wind Pressure Humidity
    00:00 +12°C° 0.3 mm 3 mps 755 mmHg 81%
    01:00 +13°C° 0.3 mm 2 mps 755 mmHg 82%
    02:00 +13°C° 0 mm 2 mps 755 mmHg 82%
    03:00 +13°C° 0 mm 2 mps 754 mmHg 82%
    04:00 +12°C° 0 mm 2 mps 754 mmHg 81%
    05:00 +12°C° 0.1 mm 2 mps 754 mmHg 82%
    06:00 +12°C° 0.1 mm 2 mps 755 mmHg 82%
    07:00 +12°C° 0.1 mm 2 mps 755 mmHg 82%
    08:00 +13°C° 0.1 mm 2 mps 755 mmHg 76%
    09:00 +15°C° 0.1 mm 2 mps 756 mmHg 70%
    10:00 +16°C° 0.1 mm 3 mps 756 mmHg 64%
    11:00 +17°C° 0 mm 3 mps 756 mmHg 61%
    12:00 +18°C° 0 mm 3 mps 756 mmHg 58%
    13:00 +18°C° 0 mm 4 mps 756 mmHg 55%
    14:00 +18°C° 0 mm 4 mps 756 mmHg 59%
    15:00 +17°C° 0 mm 4 mps 756 mmHg 62%
    16:00 +15°C° 0 mm 4 mps 757 mmHg 66%
    17:00 +14°C° 0 mm 4 mps 757 mmHg 67%
    18:00 +13°C° 0 mm 4 mps 758 mmHg 69%
    19:00 +10°C° 0 mm 5 mps 758 mmHg 71%
    20:00 +10°C° 0 mm 5 mps 759 mmHg 71%
    21:00 +9°C° 0 mm 5 mps 759 mmHg 72%
    22:00 +8°C° 0 mm 5 mps 760 mmHg 72%
    23:00 +8°C° 0 mm 5 mps 760 mmHg 74%

    Day after tomorrow, 16 December, Sunday

    Time Temperature Precipitation Wind Pressure Humidity
    00:00 +8°C° 0 mm 5 mps 760 mmHg 75%
    01:00 +7°C° 0 mm 5 mps 760 mmHg 77%
    02:00 +7°C° 0 mm 5 mps 761 mmHg 77%
    03:00 +7°C° 0 mm 5 mps 761 mmHg 78%
    04:00 +7°C° 0 mm 5 mps 761 mmHg 79%
    05:00 +7°C° 0 mm 5 mps 762 mmHg 79%
    06:00 +7°C° 0 mm 4 mps 762 mmHg 79%
    07:00 +7°C° 0 mm 4 mps 763 mmHg 79%
    08:00 +10°C° 0 mm 4 mps 763 mmHg 72%
    09:00 +11°C° 0 mm 3 mps 764 mmHg 66%
    10:00 +13°C° 0 mm 3 mps 764 mmHg 59%
    11:00 +14°C° 0 mm 3 mps 764 mmHg 54%
    12:00 +16°C° 0 mm 3 mps 764 mmHg 49%
    13:00 +17°C° 0 mm 3 mps 763 mmHg 44%
    14:00 +16°C° 0 mm 2 mps 763 mmHg 47%
    15:00 +16°C° 0 mm 2 mps 764 mmHg 49%
    16:00 +16°C° 0 mm 2 mps 764 mmHg 52%
    17:00 +14°C° 0 mm 2 mps 764 mmHg 55%
    18:00 +13°C° 0 mm 2 mps 764 mmHg 59%
    19:00 +12°C° 0 mm 2 mps 765 mmHg 63%
    20:00 +12°C° 0 mm 2 mps 765 mmHg 64%
    21:00 +12°C° 0 mm 2 mps 765 mmHg 65%
    22:00 +12°C° 0 mm 2 mps 765 mmHg 66%
    23:00 +10°C° 0 mm 2 mps 765 mmHg 67%

    17 December, Monday

    Time Temperature Precipitation Wind Pressure Humidity
    00:00 +10°C° 0 mm 2 mps 765 mmHg 67%
    01:00 +10°C° 0 mm 2 mps 765 mmHg 68%
    02:00 +10°C° 0 mm 2 mps 765 mmHg 69%
    03:00 +10°C° 0 mm 2 mps 764 mmHg 71%
    04:00 +10°C° 0 mm 3 mps 764 mmHg 72%
    05:00 +11°C° 0 mm 3 mps 764 mmHg 76%
    06:00 +11°C° 0 mm 3 mps 764 mmHg 81%
    07:00 +11°C° 0 mm 3 mps 764 mmHg 85%
    08:00 +13°C° 0 mm 4 mps 764 mmHg 78%
    09:00 +15°C° 0 mm 4 mps 764 mmHg 72%
    10:00 +18°C° 0 mm 4 mps 764 mmHg 65%
    11:00 +19°C° 0 mm 5 mps 763 mmHg 61%
    12:00 +20°C° 0 mm 5 mps 763 mmHg 57%
    13:00 +21°C° 0 mm 6 mps 763 mmHg 53%
    14:00 +20°C° 0 mm 6 mps 762 mmHg 57%
    15:00 +19°C° 0 mm 6 mps 762 mmHg 61%
    16:00 +19°C° 0 mm 6 mps 762 mmHg 66%
    17:00 +16°C° 0 mm 7 mps 762 mmHg 70%
    18:00 +15°C° 0 mm 7 mps 762 mmHg 74%
    19:00 +14°C° 0 mm 7 mps 763 mmHg 78%
    20:00 +14°C° 0 mm 7 mps 763 mmHg 78%
    21:00 +12°C° 0 mm 7 mps 763 mmHg 77%
    22:00 +12°C° 0 mm 7 mps 763 mmHg 77%
    23:00 +12°C° 0.1 mm 7 mps 763 mmHg 76%

    18 December, Tuesday

    Time Temperature Precipitation Wind Pressure Humidity
    00:00 +11°C° 0.1 mm 7 mps 763 mmHg 76%
    01:00 +11°C° 0.1 mm 7 mps 763 mmHg 75%
    02:00 +11°C° 0 mm 7 mps 763 mmHg 75%
    03:00 +10°C° 0 mm 7 mps 763 mmHg 76%
    04:00 +10°C° 0 mm 7 mps 762 mmHg 76%
    05:00 +10°C° 0 mm 7 mps 763 mmHg 76%
    06:00 +10°C° 0 mm 7 mps 763 mmHg 76%
    07:00 +10°C° 0 mm 6 mps 763 mmHg 75%
    08:00 +11°C° 0 mm 6 mps 763 mmHg 70%
    09:00 +13°C° 0 mm 6 mps 764 mmHg 65%
    10:00 +14°C° 0 mm 6 mps 764 mmHg 60%
    11:00 +15°C° 0 mm 6 mps 764 mmHg 58%
    12:00 +15°C° 0 mm 6 mps 764 mmHg 55%
    13:00 +16°C° 0 mm 5 mps 764 mmHg 53%
    14:00 +16°C° 0 mm 5 mps 764 mmHg 55%
    15:00 +15°C° 0 mm 5 mps 764 mmHg 58%
    16:00 +14°C° 0 mm 5 mps 764 mmHg 60%
    17:00 +13°C° 0 mm 5 mps 765 mmHg 64%
    18:00 +12°C° 0 mm 4 mps 765 mmHg 68%
    19:00 +11°C° 0 mm 4 mps 766 mmHg 72%
    20:00 +11°C° 0 mm 4 mps 766 mmHg 73%
    21:00 +10°C° 0 mm 4 mps 767 mmHg 75%
    22:00 +10°C° 0 mm 4 mps 767 mmHg 77%
    23:00 +10°C° 0 mm 4 mps 767 mmHg 78%

    19 December, Wednesday

    Time Temperature Precipitation Wind Pressure Humidity
    00:00 +8°C° 0 mm 4 mps 767 mmHg 80%
    01:00 +9°C° 0 mm 3 mps 767 mmHg 81%
    02:00 +9°C° 0 mm 3 mps 767 mmHg 80%
    03:00 +9°C° 0 mm 3 mps 767 mmHg 79%
    04:00 +9°C° 0 mm 3 mps 767 mmHg 78%
    05:00 +9°C° 0 mm 3 mps 768 mmHg 76%
    06:00 +8°C° 0 mm 2 mps 768 mmHg 75%
    07:00 +8°C° 0 mm 2 mps 768 mmHg 73%
    08:00 +10°C° 0 mm 2 mps 768 mmHg 65%
    09:00 +13°C° 0 mm 2 mps 768 mmHg 58%
    10:00 +15°C° 0 mm 1 mps 769 mmHg 50%
    11:00 +16°C° 0 mm 2 mps 768 mmHg 48%
    12:00 +17°C° 0 mm 2 mps 768 mmHg 45%
    13:00 +18°C° 0 mm 3 mps 767 mmHg 42%
    14:00 +17°C° 0 mm 3 mps 767 mmHg 46%
    15:00 +17°C° 0 mm 3 mps 767 mmHg 51%
    16:00 +16°C° 0 mm 3 mps 767 mmHg 55%
    17:00 +14°C° 0 mm 3 mps 767 mmHg 59%
    18:00 +12°C° 0 mm 3 mps 767 mmHg 64%
    19:00 +12°C° 0 mm 2 mps 767 mmHg 68%
    20:00 +11°C° 0 mm 3 mps 767 mmHg 68%
    21:00 +10°C° 0 mm 3 mps 767 mmHg 68%
    22:00 +10°C° 0 mm 3 mps 767 mmHg 68%
    23:00 +10°C° 0 mm 3 mps 767 mmHg 69%
    Show more